Location: Newark
(15.4608°S, 41.1635°W)
Time: 00:11:36
(UTC+00:00)

Vanguard 3 - Pass Details

Date: 06 August 2021
Orbit: 510 x 3260 km, 33.3° (Epoch: 20 September)

Event Time Altitude Azimuth Distance (km) Brightness Sun altitude
Rises 06:58:47 0° 275° (W) 5,762 - -30.6°
Reaches altitude 10° 07:03:50 10° 266° (W) 4,248 - -29.4°
Maximum altitude 07:12:44 31° 209° (SSW) 2,066 - -27.3°
Exits shadow 07:13:33 30° 198° (SSW) 2,010 8.8 -27.1°
Drops below altitude 10° 07:18:19 10° 147° (SSE) 2,604 10.0 -26.0°
Sets 07:20:40 0° 135° (SE) 3,287 10.7 -25.4°
